Wetbulb
65.03 62.46 61.51 62.92 63.32 63.88 65.10 65.32 64.91 64.61 64.94 64.59 63.84 63.57 62.98 61.89 62.10 62.17 61.99 61.50 60.95 61.28 61.56 62.38 62.13 62.44 62.60 62.70 63.09 65.01 59.02 58.95
63.84 59.96 58.56 58.77 59.32 63.64 64.64 64.27 63.83 63.72 63.88 63.62 63.43 63.97 62.70 62.48 61.24 60.68 60.27 60.06 60.30 60.00 60.42 60.79 61.03 61.55 61.76 62.15 63.48 62.96 57.45 57.87
63.21 61.00 60.66 60.79 59.86 61.24 63.34 62.87 62.72 62.60 62.64 63.31 63.00 57.83 55.75 55.48 59.49 60.74 60.00 60.31 60.33 60.88 62.05 59.68 59.80 60.69 60.90 62.45 62.42 57.79 57.39 57.49
61.37 61.67 61.47 60.79 57.61 60.79 60.48 60.17 58.73 60.46 60.56 60.62 58.08 57.57 55.17 54.53 57.66 60.44 59.81 61.14 60.24 61.30 62.55 62.12 60.30 56.63 56.69 59.52 56.32 57.64 56.07 55.36
59.27 60.86 61.30 59.63 59.88 59.92 59.83 60.51 60.18 59.71 59.90 59.05 58.72 58.40 56.64 56.71 55.01 56.29 56.07 59.20 56.42 57.33 56.67 56.02 56.21 55.19 55.02 54.85 54.79 54.46 55.77 54.11
58.43 58.63 60.58 59.97 59.93 59.71 60.44 59.50 59.73 57.77 57.48 58.32 57.87 56.41 56.21 56.11 54.87 55.63 55.74 55.47 55.75 55.16 54.91 55.64 54.75 54.87 54.70 54.08 53.88 52.82 52.88 52.53
57.88 58.98 60.99 60.92 61.83 60.23 60.02 59.21 58.69 58.56 57.03 58.30 58.21 56.52 57.40 56.24 56.93 56.05 55.75 55.62 55.04 54.51 54.62 54.06 54.14 54.05 53.51 53.25 52.80 52.45 51.62 51.86
58.54 58.86 60.49 60.98 60.65 60.37 60.34 59.23 59.95 57.60 57.94 57.81 58.77 57.39 58.16 57.16 56.43 55.66 55.08 55.37 55.12 54.36 53.73 53.70 54.11 53.80 53.41 52.79 52.40 51.84 51.24 51.01
58.17 59.37 60.54 61.00 60.44 60.02 60.16 59.37 59.08 57.07 57.72 58.61 58.35 57.98 57.86 56.67 55.80 55.33 55.30 55.69 55.48 55.32 54.98 55.28 54.20 54.49 53.49 53.07 52.89 51.95 50.73 50.34
58.47 58.55 59.69 60.19 59.90 60.61 59.25 59.83 58.47 57.16 57.59 58.23 58.43 57.89 57.28 56.29 55.31 55.13 55.87 56.21 55.95 55.37 54.22 53.39 52.63 52.17 51.64 52.24 51.25 51.60 49.79 49.97
57.90 58.48 59.12 59.81 59.97 60.28 59.44 60.84 58.56 57.96 57.86 57.32 57.55 57.00 57.22 55.99 55.74 55.59 56.14 55.98 55.30 54.70 53.75 52.66 51.35 50.62 50.68 50.91 50.69 50.27 49.63 50.89
58.47 57.98 59.10 60.24 59.70 60.20 59.49 59.10 58.14 58.33 57.45 56.67 57.38 56.34 56.70 56.32 56.02 56.07 56.42 54.79 54.07 53.68 53.05 53.53 52.69 49.60 51.03 49.80 49.29 50.80 50.22 49.03
57.71 57.53 58.36 58.58 57.71 57.21 57.18 56.76 56.74 56.93 56.75 56.83 57.17 56.95 56.59 55.92 55.85 55.78 55.26 53.86 53.24 52.69 51.90 50.90 50.46 49.99 47.15 46.09 45.96 48.46 46.48 43.71
57.13 57.89 57.72 58.15 57.80 57.86 57.55 57.57 56.93 57.14 56.66 57.12 57.09 56.56 56.13 55.70 55.87 55.17 54.55 53.59 52.41 51.98 50.93 48.88 48.72 48.81 42.58 42.55 37.55 41.76 41.65 42.32
56.86 57.89 57.77 58.05 58.14 58.25 58.33 57.99 57.13 55.77 55.96 55.96 55.92 56.17 55.96 56.04 55.67 54.57 53.53 53.09 51.56 50.40 49.08 47.42 44.02 44.42 42.70 38.64 34.15 32.65 36.33 39.52
57.55 57.99 57.50 57.87 58.80 56.92 55.91 54.59 53.29 54.58 54.82 55.38 55.16 55.95 55.64 56.04 55.03 54.07 53.10 52.10 49.85 48.42 48.16 45.37 43.19 39.46 39.69 41.31 39.21 37.38 32.15 31.46
58.18 57.89 57.33 57.51 57.76 56.99 56.65 55.28 55.89 56.15 55.99 54.86 54.93 55.49 55.47 54.92 54.57 53.72 51.62 49.50 47.81 47.16 45.12 42.95 40.89 39.02 37.19 36.59 36.15 36.12 35.84 32.13
58.61 57.38 57.21 57.71 57.36 57.62 56.98 57.01 55.82 55.00 55.29 54.06 54.24 54.80 54.46 53.97 54.24 51.61 49.63 47.53 46.21 45.77 44.34 41.91 39.82 39.15 38.27 37.19 35.45 33.58 32.69 31.61
58.63 57.30 56.55 57.12 57.43 58.24 57.69 58.33 58.51 55.84 55.68 54.93 54.43 53.76 53.18 52.64 52.09 49.74 46.88 45.79 45.46 44.80 42.21 40.67 39.28 38.11 37.38 36.63 36.82 36.21 36.04 34.81
58.78 57.17 56.52 57.07 57.37 57.58 58.15 58.92 58.03 57.14 56.61 56.26 55.21 54.39 53.66 53.37 48.96 46.44 45.41 45.26 44.41 43.07 40.91 39.50 39.38 37.65 36.97 36.71 36.08 36.36 36.58 35.67
MSLP
1021.66 1022.34 1022.72 1022.94 1023.17 1023.36 1023.51 1023.71 1023.88 1023.92 1023.91 1023.94 1024.00 1024.15 1024.23 1024.26 1024.26 1024.21 1024.17 1024.12 1024.10 1024.09 1023.95 1023.64 1023.23 1022.96 1022.73 1022.49 1022.41 1022.47 1022.85 1023.55
1021.31 1022.26 1022.74 1023.14 1023.39 1023.57 1023.70 1023.89 1024.04 1024.14 1024.21 1024.18 1024.07 1024.31 1024.43 1024.45 1024.56 1024.59 1024.53 1024.44 1024.39 1024.35 1024.23 1024.07 1023.72 1023.29 1022.99 1022.78 1022.70 1022.92 1023.52 1024.23
1020.91 1021.84 1022.52 1023.01 1023.41 1023.66 1023.89 1024.00 1024.04 1024.07 1024.21 1024.30 1024.34 1024.38 1024.77 1024.94 1024.95 1024.87 1024.72 1024.57 1024.44 1024.36 1024.22 1024.22 1024.07 1023.79 1023.54 1023.27 1023.08 1023.34 1024.05 1025.04
1021.14 1021.73 1022.29 1022.62 1022.97 1023.47 1023.66 1023.85 1024.06 1023.81 1023.88 1024.32 1024.46 1024.66 1024.77 1024.90 1024.97 1024.89 1024.86 1024.78 1024.56 1024.55 1024.40 1024.38 1024.36 1024.11 1024.09 1023.93 1023.76 1023.92 1024.43 1025.22
1021.27 1021.93 1022.13 1022.38 1022.87 1023.10 1023.31 1023.55 1023.77 1024.07 1024.20 1024.30 1024.57 1024.80 1024.93 1024.82 1025.05 1024.93 1024.91 1024.81 1024.64 1024.77 1024.90 1024.98 1024.99 1024.98 1024.83 1024.73 1024.50 1024.33 1025.05 1025.56
1021.08 1021.61 1022.01 1022.43 1022.45 1022.73 1022.97 1023.44 1023.78 1024.28 1024.51 1024.60 1024.64 1024.77 1024.84 1024.78 1024.83 1024.76 1024.84 1024.96 1025.02 1025.06 1025.18 1025.24 1025.29 1025.33 1025.31 1025.24 1025.17 1025.23 1025.28 1025.95
1021.10 1021.61 1021.91 1022.07 1022.31 1022.59 1023.08 1023.48 1023.95 1024.30 1024.52 1024.56 1024.77 1025.10 1025.25 1025.21 1025.17 1025.17 1025.31 1025.40 1025.55 1025.61 1025.48 1025.36 1025.35 1025.38 1025.45 1025.54 1025.69 1025.69 1025.77 1026.07
1021.17 1021.78 1021.96 1022.10 1022.43 1022.97 1023.34 1023.74 1024.06 1024.52 1024.80 1024.93 1025.06 1025.33 1025.42 1025.46 1025.64 1025.77 1025.95 1025.89 1025.75 1025.70 1025.61 1025.52 1025.43 1025.21 1025.32 1025.41 1025.60 1025.80 1026.05 1026.23
1021.10 1021.77 1022.04 1022.25 1022.61 1023.09 1023.51 1023.89 1024.20 1024.81 1025.19 1025.27 1025.42 1025.53 1025.63 1025.81 1026.03 1026.16 1026.08 1025.96 1025.97 1025.96 1025.91 1025.80 1025.80 1025.58 1025.53 1025.27 1025.47 1025.74 1026.01 1026.21
1020.87 1021.35 1022.11 1022.46 1022.92 1023.21 1023.47 1023.78 1024.34 1025.00 1025.42 1025.57 1025.71 1025.84 1025.90 1026.14 1026.40 1026.47 1026.22 1026.28 1026.38 1026.40 1026.48 1026.64 1026.60 1026.52 1026.32 1025.67 1025.40 1025.56 1025.87 1026.17
1020.70 1021.47 1022.22 1022.51 1022.89 1023.06 1023.54 1023.78 1024.34 1024.96 1025.50 1025.90 1026.01 1026.07 1026.03 1026.26 1026.52 1026.52 1026.27 1026.59 1026.99 1026.99 1027.01 1026.99 1026.85 1026.97 1026.83 1026.18 1025.86 1025.73 1025.78 1026.10
1020.59 1021.46 1022.14 1022.46 1022.88 1023.06 1023.57 1023.92 1024.43 1024.94 1025.55 1026.06 1026.20 1026.30 1026.23 1026.39 1026.73 1026.73 1026.72 1027.23 1027.58 1027.68 1027.62 1027.21 1027.08 1027.32 1027.30 1026.92 1026.34 1025.47 1025.97 1026.40
1020.51 1021.35 1022.07 1022.42 1022.83 1023.12 1023.63 1023.97 1024.49 1025.00 1025.47 1026.10 1026.23 1026.38 1026.48 1026.55 1026.85 1026.90 1027.30 1027.75 1028.08 1028.17 1028.19 1027.98 1027.78 1027.71 1027.84 1027.59 1026.71 1026.24 1026.84 1027.16
1020.04 1020.84 1021.73 1022.16 1022.52 1022.77 1023.27 1023.68 1024.40 1024.80 1025.48 1025.97 1026.21 1026.51 1026.66 1026.67 1026.81 1027.29 1027.63 1027.97 1028.39 1028.58 1028.81 1028.77 1028.61 1028.48 1028.62 1028.22 1028.10 1027.20 1027.18 1027.68
1019.49 1020.34 1021.25 1021.77 1021.98 1022.28 1022.85 1023.50 1024.19 1024.85 1025.49 1026.01 1026.34 1026.61 1026.73 1026.91 1027.31 1027.72 1027.92 1028.15 1028.69 1028.97 1029.38 1029.36 1029.49 1029.21 1029.20 1029.45 1029.31 1029.19 1029.17 1028.32
1019.01 1019.78 1020.79 1021.27 1021.35 1021.92 1022.63 1023.40 1024.02 1024.58 1025.32 1025.80 1026.34 1026.60 1026.86 1027.23 1027.68 1028.07 1028.26 1028.74 1029.28 1029.46 1029.75 1029.98 1029.96 1030.13 1029.99 1030.09 1030.11 1030.20 1030.23 1029.71
1018.53 1019.41 1020.21 1020.65 1021.09 1021.59 1022.35 1023.06 1023.50 1024.14 1024.90 1025.69 1026.29 1026.68 1027.02 1027.46 1027.90 1028.24 1028.84 1029.29 1029.90 1029.92 1030.23 1030.50 1030.70 1030.76 1030.92 1030.91 1030.76 1030.62 1030.62 1030.73
1018.21 1019.01 1019.75 1020.21 1020.78 1021.35 1022.00 1022.61 1023.11 1023.81 1024.76 1025.58 1026.23 1026.78 1027.21 1027.63 1028.01 1028.73 1029.31 1029.89 1030.08 1030.20 1030.45 1030.77 1031.18 1031.23 1031.38 1031.25 1031.26 1031.22 1031.24 1031.26
1017.88 1018.73 1019.43 1019.92 1020.64 1021.24 1021.92 1022.38 1022.75 1023.46 1024.43 1025.27 1025.88 1026.52 1027.23 1027.83 1028.37 1029.13 1029.87 1030.27 1030.29 1030.37 1030.74 1030.99 1031.38 1031.53 1031.61 1031.58 1031.51 1031.29 1031.28 1031.33
1017.29 1018.24 1019.01 1019.71 1020.47 1021.14 1021.65 1022.07 1022.59 1023.22 1023.98 1024.73 1025.26 1025.89 1026.78 1027.65 1028.70 1029.58 1030.12 1030.25 1030.44 1030.54 1030.96 1031.18 1031.39 1031.60 1031.67 1031.74 1031.67 1031.42 1031.41 1031.39
Wind_Speed
12 11 13 15 13 12 14 14 12 11 12 13 14 15 16 17 17 16 16 15 13 13 12 10 10 12 13 14 13 10 13 11
14 12 9 8 7 12 13 12 9 9 9 10 14 12 13 13 13 14 13 11 9 8 7 7 8 8 10 12 12 15 14 12
12 12 9 9 8 9 10 11 10 10 9 7 4 7 9 8 8 9 8 7 6 7 5 4 4 6 9 11 10 7 12 9
10 9 10 9 8 7 7 7 6 2 5 6 5 6 5 7 6 9 6 2 8 8 13 11 2 7 7 11 6 7 9 8
11 8 6 7 6 6 4 3 4 3 6 5 5 5 4 3 3 3 4 6 1 6 6 5 7 5 5 5 8 7 6 6
13 10 6 7 6 4 5 4 4 4 4 5 1 3 4 4 2 3 4 4 5 5 3 4 6 7 7 7 7 6 4 4
12 10 5 4 3 5 5 4 6 5 4 5 5 4 4 4 4 5 5 5 5 5 4 3 3 5 5 5 6 6 7 4
12 9 6 5 6 7 4 5 5 5 4 4 6 4 3 2 4 5 5 4 2 2 1 3 3 3 5 4 4 4 6 6
11 9 7 5 7 5 5 4 5 5 4 6 5 4 5 6 5 4 2 2 5 5 6 6 5 6 7 3 4 5 4 4
12 11 8 8 7 4 5 4 5 5 4 4 6 4 4 4 4 3 3 4 5 4 4 5 5 6 8 5 2 3 4 5
12 12 9 7 7 4 6 5 5 5 5 4 4 3 3 4 3 2 2 5 5 5 4 4 3 4 8 6 7 1 4 4
11 11 10 7 5 5 5 3 5 5 5 5 4 2 2 5 4 4 5 6 5 5 5 5 4 4 7 8 7 2 5 3
12 13 10 8 5 6 6 4 5 4 6 6 6 4 3 3 4 3 5 5 5 6 5 6 6 4 4 7 8 1 8 6
14 15 13 9 7 6 7 6 5 4 6 5 6 4 3 1 4 6 6 5 6 6 6 4 4 5 4 5 4 5 9 9
16 15 15 11 10 6 5 7 4 5 6 4 4 5 3 6 7 5 3 5 4 5 6 7 4 5 8 3 4 4 7 6
16 16 16 12 9 8 8 6 7 6 5 5 5 5 5 6 6 5 5 6 7 6 6 4 5 5 5 6 5 3 2 5
15 16 16 12 9 10 8 8 6 6 6 10 6 5 6 6 6 5 8 6 5 5 6 6 5 4 4 4 4 4 5 4
13 16 16 12 11 10 10 8 8 8 8 7 5 4 4 6 6 8 7 6 3 5 5 7 5 5 4 4 4 3 3 3
13 15 16 13 12 8 10 7 6 11 11 7 8 6 5 5 8 6 5 4 3 5 5 6 5 4 4 3 3 3 3 3
16 17 16 14 12 9 10 7 4 7 9 7 7 7 7 8 9 8 6 3 5 4 4 4 4 3 4 4 3 3 3 3
Wind_Direction
129 111 105 98 96 94 93 92 92 97 100 100 91 85 80 73 66 65 63 60 58 55 45 22 32 23 8 358 357 35 74 58
121 130 126 126 105 102 105 107 110 114 113 121 117 104 72 65 71 69 73 69 62 56 48 19 345 36 8 356 4 68 62 58
123 131 138 125 126 120 123 135 149 148 150 168 180 103 95 82 88 84 88 92 61 44 18 184 312 331 12 347 32 76 76 65
117 134 137 160 128 161 156 155 168 125 83 108 74 68 101 112 132 138 133 123 93 53 40 51 333 32 21 16 7 82 85 84
143 116 168 143 135 159 170 144 106 60 44 85 145 146 160 194 157 192 170 195 164 76 47 40 34 25 26 23 8 22 85 83
127 153 156 132 172 177 129 109 130 101 98 116 134 51 43 46 101 146 91 47 41 53 60 97 76 41 22 23 33 20 47 99
143 135 143 165 183 96 88 124 96 106 69 61 78 69 54 50 33 43 42 43 38 22 15 54 50 103 75 46 23 34 31 51
127 142 147 178 104 103 106 92 117 105 84 68 82 101 119 99 65 62 50 34 41 107 117 10 4 354 120 98 116 67 65 31
141 143 147 128 105 115 110 145 112 92 87 73 87 70 46 64 52 47 54 35 38 27 8 2 23 360 355 74 64 92 69 71
151 148 154 128 128 175 135 126 113 121 113 92 84 87 84 89 67 39 25 38 30 15 44 359 19 15 342 312 104 93 91 87
158 138 151 156 158 149 124 148 113 123 112 109 95 90 80 107 93 15 19 70 35 24 6 17 16 23 333 355 341 140 95 47
151 145 149 147 168 129 119 151 123 118 125 117 140 118 131 94 64 19 51 38 48 10 4 360 11 57 346 340 313 241 74 16
156 151 161 148 175 161 148 165 127 145 116 155 145 141 97 91 145 122 92 68 54 30 356 1 357 31 24 326 337 36 65 2
163 160 165 165 175 180 167 139 146 140 130 152 127 132 142 142 69 65 17 100 66 52 13 0 348 30 20 327 334 311 14 355
168 164 166 180 181 160 149 130 142 126 131 145 147 137 188 84 69 79 79 57 60 57 29 22 352 2 15 50 353 12 332 5
168 162 169 191 170 160 152 157 162 159 152 151 137 160 121 97 91 84 56 71 44 38 45 16 23 4 4 12 14 352 339 324
171 164 172 184 173 158 159 166 171 154 155 132 142 138 116 113 107 88 67 72 73 65 67 36 28 23 17 359 1 352 0 7
171 169 176 173 179 161 167 176 180 151 134 143 148 141 126 120 107 79 78 85 72 78 57 62 38 40 15 357 9 357 4 343
170 174 178 173 177 162 171 192 167 146 144 162 158 151 137 133 106 106 90 80 72 79 56 72 58 35 54 1 348 357 20 337
174 179 178 174 169 176 175 191 155 152 154 175 164 153 138 113 95 92 106 122 87 53 68 54 69 36 45 40 323 349 18 353